Back to catalog

STARLINK-31920

AliveCommunicationsVLEO
NORAD 59907·PAYLOAD·🇺🇸 United States

Launched May 28, 2024 from Cape Canaveral Space Force Station

Loading…

Next Passes (next 24 hours)

TLE

FreshSource: CelesTrak SupGP

Epoch: Sep 14, 2026, 14:47 UTC

1 59907C 24100Y   26257.61645833  .00066605  00000+0  43151-3 0  2571
2 59907  42.9853  59.6904 0029108 304.5501 227.9881 15.74405820    18

Track STARLINK-31920 in real time with AllMySat

Download on the App Store